Wind_Speed
12 11 10 8 7 5 4 3 2 2 1 1 1 2 3 4 4 5 6 6 6 7 6 6 6 7 7 6 6 5 4 4 4 3 3 5 6 6 7 6 7 7 8
14 12 11 10 8 6 5 4 3 3 2 1 0 0 1 2 3 3 4 4 4 5 5 5 6 6 6 6 6 5 5 5 5 5 6 6 6 7 8 7 8 9 10
15 13 12 11 10 8 6 5 5 4 4 3 2 2 1 1 2 2 3 3 3 4 4 5 5 5 5 5 6 6 6 6 7 7 8 8 8 8 8 8 10 11 11
16 15 13 12 11 9 8 7 7 6 6 5 4 4 3 3 3 3 3 3 3 3 4 4 4 5 5 5 6 6 7 8 9 9 10 10 10 10 10 11 13 14 14
17 16 15 14 12 11 10 9 9 8 8 8 7 6 6 5 5 5 5 5 5 5 5 5 5 6 6 7 7 8 9 10 11 11 12 13 13 13 14 14 15 16 18
18 17 16 15 14 13 12 11 10 9 9 9 9 9 8 8 7 7 7 7 7 7 7 7 7 8 8 9 10 10 11 12 13 14 14 15 16 16 17 17 18 19 20
18 18 17 16 15 15 14 13 12 11 11 10 10 10 10 10 10 9 9 9 9 9 9 9 9 10 10 11 12 13 13 13 15 15 16 17 17 18 19 19 20 21 22
18 19 18 17 17 16 15 15 14 13 13 12 12 12 12 12 11 11 11 11 11 10 11 11 11 12 12 13 14 15 15 16 17 17 18 19 19 20 21 22 23 24 24
18 19 19 19 18 18 17 17 16 16 15 15 14 14 13 13 13 13 13 13 13 13 13 13 14 14 15 16 16 17 17 18 19 19 21 21 22 23 24 24 25 26 27
20 20 19 19 19 18 18 18 18 18 18 17 16 16 15 15 15 15 15 15 15 15 15 16 16 17 17 18 19 20 20 20 21 22 23 24 25 26 26 27 28 28 29
21 20 20 20 20 19 19 19 18 19 19 19 18 18 18 17 17 17 17 17 17 18 18 18 19 19 20 21 22 22 22 23 24 25 26 27 28 28 29 30 31 31 31
21 21 20 21 20 20 20 20 20 19 20 20 20 20 19 19 19 20 20 20 20 20 21 21 22 23 23 24 24 25 25 26 27 28 29 30 31 31 32 33 34 34 35
21 21 21 21 21 21 20 20 20 20 21 21 21 21 21 21 22 22 22 22 22 23 24 25 25 26 26 26 27 27 28 29 30 31 32 33 33 34 35 36 37 38 39
22 22 22 22 22 22 22 22 22 22 22 22 23 23 24 24 24 24 24 24 25 26 27 27 28 28 29 29 29 30 31 32 34 34 35 36 37 38 39 39 40 40 41
22 23 23 23 23 23 23 24 24 24 25 25 25 25 26 26 26 26 27 27 27 28 29 30 30 31 31 32 33 34 35 36 37 37 38 39 40 41 42 42 43 43 44
24 24 24 25 25 26 26 26 26 27 27 27 27 28 28 29 29 29 29 30 30 31 32 33 34 34 35 35 36 37 38 39 40 41 42 43 43 44 44 45 46 47 47
25 25 26 27 27 28 29 29 29 30 30 30 30 31 31 31 32 32 33 33 34 34 35 36 37 37 38 39 40 41 42 43 43 44 45 46 46 47 48 48 49 50 50
27 27 28 28 29 30 30 31 31 32 32 32 33 33 34 34 35 36 36 37 37 38 39 39 40 41 41 42 43 44 45 46 47 47 48 49 49 50 51 51 52 53 53
29 29 30 31 31 31 32 32 33 33 34 34 35 36 36 37 37 38 39 40 40 41 42 42 43 44 45 46 46 47 48 49 50 50 51 51 52 53 54 55 55 56 56
31 31 31 32 32 33 34 34 35 35 36 36 37 38 39 40 40 41 41 42 43 43 45 45 46 47 47 48 49 50 51 51 52 52 53 54 55 56 57 58 58 59 60
32 33 33 34 34 34 35 36 37 38 38 39 40 41 41 42 42 43 44 44 45 46 47 48 49 50 50 51 52 52 53 54 54 55 56 57 57 58 59 60 61 61 62
34 34 35 36 36 37 37 38 39 40 40 41 42 42 43 44 44 45 46 47 47 48 49 50 51 52 53 54 54 55 56 56 57 58 59 59 60 61 61 61 61 62 63
35 35 36 37 38 39 40 40 41 41 42 43 44 44 45 46 47 48 49 50 50 51 51 52 53 54 55 56 57 57 58 59 59 60 61 61 62 62 62 62 62 63 63
37 37 38 39 40 41 41 42 43 43 44 45 46 46 47 48 49 50 51 52 52 53 54 55 56 57 58 59 59 60 61 61 62 62 62 62 62 63 63 63 63 63 63
40 40 41 41 42 43 43 44 45 45 46 47 48 49 49 50 51 52 53 54 55 56 57 58 59 60 60 61 61 61 62 62 63 63 63 63 63 63 63 63 63 63 62
43 43 44 44 45 45 46 47 47 48 49 50 50 51 52 52 53 54 56 57 58 58 59 60 61 61 61 61 62 62 62 63 63 64 64 64 64 63 63 62 62 61 61
Wind_Direction
203 202 202 202 203 204 202 192 180 161 154 116 59 60 59 55 55 56 54 53 54 53 51 48 46 43 41 40 39 36 30 21 6 351 335 321 305 296 292 282 279 283 277
207 207 207 208 210 214 215 210 205 199 200 205 208 48 47 50 49 45 42 42 41 39 36 34 31 29 26 25 22 19 14 6 358 350 335 328 313 301 298 292 287 286 285
208 210 211 211 214 219 222 221 219 218 224 232 245 273 296 349 2 10 13 18 20 18 15 12 11 10 9 6 4 359 355 347 341 337 332 332 323 312 304 300 293 291 292
211 212 214 215 216 221 227 229 230 232 237 243 253 268 273 286 298 312 324 335 344 349 353 353 351 348 344 344 342 339 335 331 328 326 324 326 324 315 309 304 299 297 296
215 216 217 219 220 224 230 234 237 241 245 250 256 263 271 276 283 292 299 308 313 315 316 319 323 326 326 325 324 324 322 320 321 321 319 316 314 312 308 303 297 296 295
217 219 221 223 225 228 232 236 240 244 249 254 257 261 266 271 279 285 288 296 300 303 305 306 305 306 311 313 313 313 313 313 312 314 314 312 310 309 308 305 301 298 297
219 222 224 226 229 233 236 239 242 246 252 258 261 264 267 269 274 278 282 291 295 297 301 304 305 303 302 305 309 309 309 310 310 310 310 309 309 308 307 306 305 303 300
223 225 226 229 233 237 239 242 246 249 252 256 261 266 270 271 273 275 279 285 289 292 295 299 300 301 301 303 305 307 307 307 307 307 307 308 308 308 307 306 306 304 301
229 231 230 232 236 240 242 246 249 251 253 256 260 265 268 271 273 276 277 281 284 288 291 294 296 297 298 300 302 304 305 305 305 305 305 307 307 307 307 306 307 305 302
233 235 236 236 238 241 244 248 250 252 255 257 260 263 266 268 271 275 278 280 282 285 288 290 293 295 297 299 300 301 302 303 304 304 304 304 305 305 305 305 306 305 304
237 239 241 241 241 243 246 249 254 255 256 257 261 264 266 268 270 274 277 279 280 283 285 288 290 292 294 296 297 298 300 301 303 304 304 304 304 304 304 304 304 304 303
240 242 244 244 244 246 249 252 254 256 259 261 262 264 266 269 272 274 277 279 280 283 286 288 290 291 292 295 296 297 299 300 301 302 303 303 303 303 303 303 303 302 302
240 243 244 245 246 249 251 253 255 257 260 262 264 267 268 270 272 275 277 279 281 283 286 288 290 290 292 293 294 295 297 298 299 300 301 301 302 302 302 302 302 301 301
242 244 245 247 249 251 253 255 257 259 261 263 266 268 269 270 272 274 277 279 281 283 285 288 289 290 291 292 293 294 295 297 297 299 299 300 300 301 301 301 301 300 300
246 247 248 250 252 253 255 257 258 260 263 266 267 270 272 273 273 275 277 279 281 283 284 286 288 289 290 292 292 293 295 296 297 297 298 298 299 300 300 300 300 300 300
248 249 251 252 254 256 257 259 260 263 266 267 269 271 273 273 274 275 277 279 281 282 284 285 287 289 290 291 292 293 294 296 296 296 297 297 298 299 299 299 299 299 299
250 252 254 255 257 258 260 261 263 265 268 270 271 272 274 276 277 278 279 280 281 282 283 285 287 288 289 290 291 293 294 295 295 296 296 297 297 298 298 299 299 299 299
253 255 256 258 259 261 262 263 265 267 269 270 271 272 274 275 278 279 279 281 282 283 284 286 287 288 289 290 291 293 293 294 295 295 296 296 297 297 297 298 298 299 299
257 258 258 259 260 262 264 266 268 269 270 272 273 274 275 277 278 279 281 283 284 284 285 286 287 288 289 290 291 292 293 294 295 295 296 296 296 297 297 298 298 298 298
260 261 261 261 263 264 266 267 269 271 272 273 274 275 277 278 279 280 282 283 285 285 286 287 288 289 290 291 292 292 293 294 294 295 296 296 296 297 297 297 297 298 298
262 263 264 265 266 267 268 269 270 272 273 275 275 276 277 278 279 280 282 283 284 285 286 287 288 289 290 291 292 292 293 294 294 295 295 295 296 296 297 297 297 297 297
264 264 265 267 268 269 270 271 272 273 274 276 277 277 278 279 280 281 283 284 285 286 287 288 289 290 290 291 292 292 293 293 294 294 294 295 295 296 296 297 297 297 297
265 265 266 267 268 270 271 272 273 274 275 276 277 279 280 280 280 281 282 284 285 285 287 288 289 290 291 292 292 293 293 293 293 293 294 295 295 296 296 296 297 297 297
267 267 268 269 270 271 272 273 274 275 276 277 278 279 280 281 282 283 283 283 284 285 286 288 289 290 291 291 292 292 293 293 293 293 294 294 295 295 296 296 296 297 297
269 269 270 271 272 272 273 274 275 275 276 277 278 279 280 281 282 283 283 283 284 286 287 288 289 289 290 290 291 292 292 293 293 293 293 294 294 295 295 296 296 297 297
269 270 271 272 272 273 274 274 275 276 277 278 279 280 281 282 283 283 284 284 285 286 287 288 289 289 289 290 291 291 292 292 293 293 294 294 294 295 295 296 296 296 296
Height
5875 5877 5878 5880 5881 5882 5882 5882 5883 5883 5883 5883 5882 5882 5881 5880 5879 5878 5877 5876 5875 5874 5873 5873 5872 5871 5871 5870 5870 5869 5868 5868 5867 5867 5866 5865 5864 5864 5863 5863 5864 5864 5864
5873 5875 5877 5878 5880 5881 5881 5882 5882 5882 5882 5882 5882 5882 5881 5880 5880 5879 5878 5877 5876 5875 5874 5873 5872 5872 5871 5871 5870 5869 5868 5868 5867 5866 5865 5864 5862 5862 5861 5861 5862 5862 5862
5871 5873 5875 5877 5878 5879 5880 5881 5881 5882 5882 5882 5882 5882 5881 5880 5880 5879 5878 5877 5876 5875 5874 5873 5872 5872 5871 5870 5870 5869 5868 5867 5866 5865 5864 5862 5860 5860 5859 5859 5859 5859 5859
5869 5871 5873 5875 5876 5878 5878 5879 5880 5880 5881 5881 5881 5881 5880 5880 5879 5878 5877 5876 5875 5875 5874 5873 5872 5871 5871 5870 5869 5868 5867 5866 5865 5864 5863 5861 5860 5858 5858 5857 5856 5856 5855
5866 5868 5871 5872 5874 5875 5876 5877 5878 5879 5879 5879 5880 5879 5879 5879 5878 5877 5876 5875 5874 5874 5873 5872 5871 5870 5870 5869 5868 5867 5866 5865 5864 5862 5861 5859 5858 5856 5855 5854 5853 5852 5851
5863 5866 5868 5870 5872 5873 5874 5875 5876 5877 5877 5877 5878 5878 5877 5877 5876 5876 5875 5874 5873 5872 5871 5870 5869 5869 5868 5867 5866 5865 5864 5863 5862 5860 5859 5857 5855 5854 5852 5850 5849 5848 5846
5860 5862 5865 5867 5869 5870 5871 5872 5873 5874 5875 5875 5875 5875 5875 5875 5874 5873 5873 5872 5871 5870 5869 5868 5867 5866 5866 5865 5864 5863 5862 5860 5859 5857 5856 5854 5852 5850 5848 5846 5844 5842 5840
5857 5859 5861 5863 5865 5867 5868 5869 5870 5871 5872 5872 5872 5872 5872 5872 5871 5871 5870 5870 5869 5868 5867 5866 5865 5864 5863 5862 5861 5860 5858 5857 5855 5853 5852 5850 5848 5846 5843 5841 5838 5836 5833
5853 5855 5857 5859 5861 5863 5865 5866 5867 5868 5868 5869 5869 5869 5869 5869 5868 5868 5867 5867 5866 5865 5864 5863 5862 5861 5860 5859 5858 5856 5855 5853 5851 5849 5847 5845 5842 5840 5838 5835 5832 5829 5826
5849 5851 5853 5855 5857 5859 5860 5861 5863 5863 5864 5865 5865 5865 5865 5865 5864 5864 5863 5863 5862 5862 5861 5860 5859 5858 5856 5855 5853 5852 5850 5848 5846 5844 5842 5839 5837 5834 5831 5828 5825 5822 5818
5845 5847 5849 5851 5852 5854 5855 5857 5858 5859 5859 5860 5860 5861 5861 5860 5860 5860 5859 5859 5858 5857 5856 5855 5854 5853 5851 5850 5848 5846 5845 5843 5840 5838 5836 5833 5830 5827 5824 5821 5818 5814 5811
5841 5843 5844 5846 5847 5849 5851 5852 5853 5854 5854 5855 5855 5855 5856 5856 5855 5855 5854 5854 5853 5852 5851 5850 5849 5847 5846 5844 5842 5840 5838 5836 5834 5831 5829 5826 5823 5819 5816 5813 5809 5806 5802
5836 5838 5840 5841 5843 5844 5845 5847 5848 5848 5849 5849 5850 5850 5850 5850 5850 5849 5849 5848 5847 5846 5845 5844 5842 5841 5839 5837 5836 5834 5831 5829 5826 5824 5821 5817 5814 5811 5807 5804 5800 5796 5792
5831 5833 5835 5836 5838 5839 5840 5841 5842 5843 5843 5843 5844 5844 5844 5844 5843 5843 5842 5842 5841 5840 5839 5837 5836 5834 5832 5830 5828 5826 5824 5821 5818 5815 5812 5809 5805 5802 5798 5794 5790 5786 5783
5826 5828 5829 5831 5832 5833 5834 5835 5836 5837 5837 5837 5837 5837 5837 5837 5836 5836 5835 5834 5833 5832 5831 5829 5828 5826 5824 5822 5820 5817 5815 5812 5809 5806 5802 5799 5795 5791 5787 5783 5779 5775 5771
5821 5822 5824 5825 5826 5827 5828 5828 5829 5830 5830 5830 5830 5830 5829 5829 5828 5828 5827 5826 5825 5823 5822 5820 5819 5817 5815 5813 5810 5808 5805 5802 5798 5795 5791 5788 5784 5780 5776 5772 5767 5763 5759
5814 5816 5817 5818 5819 5820 5821 5821 5822 5822 5822 5822 5822 5821 5821 5820 5820 5819 5818 5817 5816 5814 5812 5811 5809 5807 5805 5802 5800 5797 5794 5790 5787 5783 5779 5775 5772 5767 5763 5759 5754 5750 5745
5807 5809 5810 5811 5812 5812 5813 5813 5813 5814 5814 5813 5813 5813 5812 5811 5810 5809 5808 5807 5806 5804 5802 5800 5798 5796 5793 5791 5788 5785 5781 5778 5774 5770 5766 5762 5758 5754 5750 5745 5740 5735 5730
5800 5801 5802 5803 5803 5804 5804 5804 5805 5805 5805 5804 5804 5803 5802 5801 5800 5799 5798 5796 5795 5793 5791 5789 5787 5784 5781 5778 5775 5772 5768 5765 5761 5757 5753 5748 5744 5739 5735 5730 5725 5720 5714
5791 5792 5793 5794 5794 5795 5795 5795 5795 5795 5794 5794 5794 5792 5791 5790 5789 5788 5786 5785 5783 5781 5779 5776 5774 5771 5768 5765 5762 5758 5754 5751 5746 5742 5738 5733 5728 5724 5719 5714 5708 5703 5697
5782 5783 5784 5784 5785 5785 5785 5785 5785 5784 5784 5783 5782 5781 5780 5779 5777 5776 5774 5772 5770 5768 5766 5763 5760 5757 5754 5751 5747 5743 5739 5735 5731 5727 5722 5717 5712 5707 5702 5697 5691 5685 5680
5773 5773 5774 5774 5774 5774 5774 5774 5774 5773 5772 5772 5770 5769 5767 5766 5765 5763 5761 5759 5757 5754 5752 5749 5746 5742 5739 5735 5732 5728 5724 5720 5715 5710 5706 5700 5695 5690 5685 5679 5674 5668 5662
5762 5762 5763 5763 5763 5763 5762 5762 5761 5761 5760 5759 5757 5756 5754 5753 5751 5749 5747 5745 5742 5740 5737 5734 5731 5727 5723 5719 5715 5711 5707 5703 5698 5692 5688 5683 5678 5672 5667 5661 5656 5650 5644
5751 5751 5751 5751 5750 5750 5750 5749 5748 5748 5746 5745 5744 5742 5740 5738 5736 5734 5732 5729 5727 5724 5721 5718 5714 5711 5707 5702 5698 5694 5689 5684 5679 5674 5669 5664 5660 5654 5649 5643 5637 5631 5625
5739 5739 5738 5738 5738 5737 5736 5736 5735 5734 5732 5731 5729 5727 5725 5723 5721 5718 5716 5713 5710 5707 5704 5700 5697 5693 5689 5685 5680 5676 5671 5666 5661 5655 5651 5646 5641 5636 5630 5625 5619 5613 5606
5726 5726 5725 5725 5724 5723 5722 5722 5720 5719 5717 5716 5714 5712 5710 5707 5705 5702 5699 5696 5693 5689 5686 5682 5678 5674 5670 5666 5662 5657 5652 5647 5642 5637 5632 5627 5622 5617 5611 5606 5600 5594 5588